Location: Prairie Dale
(45.6972°N, 104.5033°W)
Time: 21:36:04
(UTC+00:00)

DX 1 - Pass Details

Date: 10 July 2022
Orbit: 616 x 630 km, 98.4° (Epoch: 13 August)

Event Time Altitude Azimuth Distance (km) Brightness Sun altitude
Rises 04:18:44 0° 13° (NNE) 2,927 ? -12.5°
Reaches altitude 10° 04:20:56 10° 13° (NNE) 2,013 ? -12.7°
Maximum altitude 04:25:20 89° 289° (WNW) 632 ? -13.2°
Drops below altitude 10° 04:29:40 10° 196° (SSW) 1,989 ? -13.6°
Enters shadow 04:30:10 - 196° (SSW) 2,193 ? -13.7°
